Regional Weather Roundup
Issued by NWS

Home | Current Version | Previous Version | Text Only | Print | Product List | Glossary On
Versions: 1 2 3 4 5 6 7 8 9 10 11 12 13 14 15 16 17 18 19 20 21 22 23 24 25 26 27 28 29 30 31 32 33 34 35 36 37 38 39 40 41 42 43 44 45 46 47 48 49 50
000
ASUS44 KEWX 271702
RWRTX
SOUTH TEXAS REGIONAL WEATHER ROUNDUP
NATIONAL WEATHER SERVICE AUSTIN/SAN ANTONIO TX
1100 AM CST TUE JAN 27 2015

NOTE: "FAIR" INDICATED FEW OR NO CLOUDS BELOW 12,000 FEET WITH NO
SIGNIFICANT WEATHER AND/OR OBSTRUCTIONS TO VISIBILITY.

* - THESE STATIONS ARE NOT NWS OR FAA STATIONS...AND ARE NOT SUBJECT
    TO NWS AND FAA QUALITY CONTROL.

TXZ171-172-183>190-271800-
TEXAS HILL COUNTRY AND EDWARDS PLATEAU

CITY           SKY/WX    TMP DP  RH WIND       PRES   REMARKS
JUNCTION       SUNNY     57  39  51 CALM      30.24F
*LLANO         MOSUNNY   63  39  42 CALM      30.27S
BURNET           N/A     61  37  41 MISG      30.25R
*HORSESHOE BAY MOSUNNY   64  37  37 NW3       30.23S
*KERRVILLE     SUNNY     61  39  43 NW6       30.24S
*FREDERICKSBRG MOSUNNY   62  41  46 CALM      30.23S
*ROCKSPRINGS   SUNNY     66  34  30 N3        30.28S
*BOERNE STAGE  SUNNY     72  34  25 N7        30.24R
*CASTROVILLE   SUNNY     66  41  40 N3        30.25S
HONDO          SUNNY     71  35  26 NW5       30.25R
*UVALDE        SUNNY     67  42  40 CALM      30.25S
DEL RIO        SUNNY     63  41  44 W8        30.25S
LAUGHLIN AFB   SUNNY     65  42  43 W6        30.26R
CARRIZO SPRGS  SUNNY     63  43  48 CALM      30.25R
$$

TXZ173-191>194-202-209-217>225-228-271800-
CENTRAL AND SOUTH CENTRAL TEXAS

CITY           SKY/WX    TMP DP  RH WIND       PRES   REMARKS
GEORGETOWN     SUNNY     68  41  37 W8        30.20S
AUSTIN/BERGSTM MOSUNNY   68  40  35 NW10      30.20S
AUSTIN/MABRY   SUNNY     64  39  39 NW6       30.21S
*AUSTIN/EXEC   SUNNY     68  37  32 NW10      30.21R
*LAGO VISTA    SUNNY     65  40  40 W8        30.22S
SAN MARCOS     SUNNY     70  39  32 CALM      30.21R
NEW BRAUNFELS  SUNNY     71  40  32 NW7       30.20S
RANDOLPH AFB   SUNNY     69  37  30 W9        30.22R
PT SAN ANTONIO SUNNY     71  36  28 W7        30.21S
SAN ANTONIO    MOSUNNY   71  39  31 W6        30.22S
STINSON FIELD  SUNNY     71  38  29 SW8       30.21S
*PLEASANTON    SUNNY     71  39  31 W5        30.24S
*LA GRANGE     SUNNY     67  43  40 NW9       30.18S
*GIDDINGS      NOT AVBL
*GONZALES      SUNNY     71  44  37 W3        30.20S
$$

TXZ163>164-176>182-195>201-210>213-226-227-235-271800-
SOUTHEAST TEXAS

CITY           SKY/WX    TMP DP  RH WIND       PRES   REMARKS
COLLEGE STN    SUNNY     64  41  42 VRB5      30.19R
*BRYAN         SUNNY     65  42  43 NW3       30.20R
*CALDWELL      SUNNY     64  36  34 NW7       30.23R
*CROCKETT      SUNNY     66  48  52 N5        30.20S
*BRENHAM       SUNNY     65  41  40 NW8       30.20R
HUNTSVILLE     SUNNY     66  42  41 CALM      30.17S
CONROE         SUNNY     65  42  43 NW5       30.18R
HOUSTON BUSH   MOSUNNY   67  41  38 W5        30.17S
HOUSTON HOBBY  SUNNY     68  40  35 W7        30.17S
*HOUSTON SW AP SUNNY     66  44  44 W10       30.19S
PEARLAND       SUNNY     69  39  33 NW8       30.19R
HOUSTON HOOKS  SUNNY     67  41  38 W5        30.17S
ELLINGTON FLD  MOSUNNY   68  43  40 W7        30.18S
SUGAR LAND     SUNNY     68  42  38 NW9       30.18R
*HOUSTON EXEC    N/A    N/A N/A N/A MISG        N/A
*CLEVELAND MUN NOT AVBL
*WHARTON       SUNNY     66  46  48 W10       30.20S
*COLUMBUS      FAIR      69  41  35 NW9       30.18S
$$

TXZ214>216-236>238-271800-
THE UPPER TEXAS COAST

CITY           SKY/WX    TMP DP  RH WIND       PRES   REMARKS
*ORANGE        SUNNY     67  44  43 NW3       30.17S
PORT ARTHUR    SUNNY     68  44  42 NW8       30.16R
GALVESTON      SUNNY     68  46  45 W7        30.18S
ANGLETON       SUNNY     70  41  34 NW9       30.18S
*BAY CITY      SUNNY     69  42  37 W13       30.19F
PALACIOS       SUNNY     69  45  41 W14G20    30.21S
$$

TXZ229>234-239>247-271800-
TEXAS COASTAL BEND AND RIO GRANDE PLAINS

CITY           SKY/WX    TMP DP  RH WIND       PRES   REMARKS
VICTORIA       SUNNY     72  41  32 W14       30.22S
*BEEVILLE      SUNNY     70  38  31 W9        30.23F
ROCKPORT       SUNNY     68  41  37 VRB7      30.23S
*PORT ARANSAS  SUNNY     64  44  49 W7        30.23S
*PORT LAVACA   NOT AVBL
*INGLESIDE     SUNNY     71  37  29 W13       30.23S
CORPUS CHRISTI MOSUNNY   69  45  41 W13       30.23F
CORPUS NAS     MOSUNNY   71  42  35 W10       30.23S
*ROBSTOWN      SUNNY     71  42  35 W9        30.25S
ALICE          SUNNY     77  33  20 SW9       30.23S
KINGSVILLE NAS MOSUNNY   74  40  29 SW10      30.24S
COTULLA        MOSUNNY   70  40  33 VRB3      30.24S
*FAITH RANCH     N/A     66  43  42 MISG      30.26R
LAREDO         NOT AVBL
$$

TXZ248>255-271800-
DEEP SOUTH TEXAS

CITY           SKY/WX    TMP DP  RH WIND       PRES   REMARKS
BROWNSVILLE    SUNNY     72  48  42 SW10      30.25S
PORT ISABEL    SUNNY     73  47  39 SW12      30.24S
*SOUTH PADRE   SUNNY    N/A N/A N/A NW6       30.24F
HARLINGEN      SUNNY     73  40  30 SW10      30.24S
*HEBBRONVILLE  MOSUNNY   72  37  27 SW10      30.25S
MCALLEN        MOSUNNY   71  40  32 NW5       30.25S
*WESLACO       SUNNY     69  41  36 W3        30.25S
FALFURRIAS     SUNNY     75  26  16 SW8       30.24S
EDINBURG       SUNNY     72  37  27 W3        30.26R
*ZAPATA        SUNNY     64  43  46 CALM      30.25R
$$

TXZ213>215-236>238-242>244-246-247-251-254-255-271800-
CMAN STATIONS

STATION/POSITION TIME  TEMP    WIND        PRES    WAVE
                       AIR SEA DIR/SP/G            HT/PER
                 (UTC) (F)     (DEG/KT/KT) (MB)    (FT/S)
SABINE PASS      1600   64 52  310/  4/  8 1021.3
SEA RIM ST PARK  1600   62     290/  7/ 10 1021.8
NORTH JETTY/GLS  1600   63 55  310/  7/  9   N/A
EAGLE POINT      1600   65 55  330/  7/ 14 1021.8
MORGANS POINT    1600   63     320/  7/  9 1021.5
MISSION/ARANSAS  1600   56     VRB  8      1024.0
PORT O`CONNOR    1600          260/ 11/ 14   N/A
PORT ARANSAS     1600   64 58  270/  8/ 10 1024.4
MALAQUITE BEACH  1600   65 60  260/  9/ 10 1023.5
BAFFIN BAY       1600   57     240/  5/  5 1024.1
PORT ISABEL      1600   68 57  230/  7/ 10 1024.3
$$

GMZ080-GMZ150>470-271800-
OFFSHORE BUOY REPORTS

STATION/POSITION TIME  TEMP    WIND        PRES    WAVE
                       AIR SEA DIR/SP/G            HT/PER
                 (UTC) (F)     (DEG/KT/KT) (MB)    (FT/S)
20 E GALVESTON   1700   57 56  260/  6/  8 1021.6    1/ 4
90 E PT ARANSAS  1700   67 68  280/ 17/ 21 1023.3
35 NE PT MANSFLD 1700   63 67  250/ 12/ 12 1023.8    2/ 3
200 E PT ISABEL  1700   71 72  320/ 12/ 14 1023.3    2/ 5
$$


USA.gov is the U.S. government's official web portal to all federal, state and local government web resources and services.